"Pseudo-MPEC" for P20MiyV

Created 2019 Feb 15 22:18:10 UT using Find_Orb

Click here for an explanation of pseudo-MPECs

 
 Astrometry: 
     P20MiyV  C2019 02 09nM-Astrometry0M,R*=t@U)x=)redacted;gUMVavHIJ:5x,RG3_F52
     P20MiyV  C2019 02 09W`lcclickE/]eeA=\$+k^2!EbJHherefd7eKi28Niyt-x^D=#e5_F52
     P20MiyV  C2019 02 09Ct+',for,IV(5u?.287VkeciI-aMexplanationv@JJK,0WfYhooF52

Station data:
(F52) Pan-STARRS 2, Haleakala  (N20.707384 W156.255910)  US/Hawaii.

Orbital elements:  P20MiyV
   Perihelion 2018 Sep 10.427925 +/- 77 TT = 10:16:12 (JD 2458371.927925)
Epoch 2019 Feb  9.0 TT = JDT 2458523.5   Earth MOID: 0.0127   Ve: 0.0389
M 179.71965195 +/- 120              (J2000 ecliptic)          AutoNEOCP
n   1.18570423 +/- 0.699            Peri.  196.89424 +/- 60
a   0.88406690 +/- 0.347            Node   123.27069 +/- 70
e   0.1450679 +/- 0.229             Incl.    2.82951 +/- 53
P   0.83/303.61d           H 27.1   G  0.15   U 12.5  SR
q 0.75581717 +/- 0.354    Q 1.01231663 +/- 11.3
From 3 observations 2019 Feb. 9 (36.0 min); mean residual 0".14
Residuals in arcseconds: 
190209 F52  .12+  .06+    190209 F52  .25-  .12-    190209 F52  .12+  .06+    

Ephemerides (geocentric):
Date (UTC) HH   RA              Dec         delta   r     elong  mag " sig PA
---- -- -- --  -------------   -----------  ------ ------ -----  --- ---- ---
2019 02 15 22  09 24 07.168   +55 03 07.20  .03190 1.0114 137.1 21.3  33d 140
2019 02 15 23  09 23 25.407   +55 07 30.18  .03192 1.0114 137.0 21.3  33d 140
2019 02 16 00  09 22 43.573   +55 11 51.66  .03195 1.0113 136.9 21.3  33d 140
2019 02 16 01  09 22 01.666   +55 16 11.63  .03198 1.0113 136.8 21.3  33d 140
2019 02 16 02  09 21 19.686   +55 20 30.10  .03201 1.0113 136.7 21.3  33d 140
2019 02 16 03  09 20 37.635   +55 24 47.06  .03204 1.0113 136.6 21.3  34d 140
2019 02 16 04  09 19 55.512   +55 29 02.51  .03207 1.0113 136.5 21.3  34d 139
2019 02 16 05  09 19 13.320   +55 33 16.46  .03210 1.0113 136.4 21.3  34d 139
2019 02 16 06  09 18 31.059   +55 37 28.89  .03212 1.0113 136.2 21.3  34d 139
2019 02 16 07  09 17 48.729   +55 41 39.81  .03215 1.0113 136.1 21.3  34d 139
2019 02 16 08  09 17 06.331   +55 45 49.22  .03218 1.0112 136.0 21.3  34d 139
2019 02 16 09  09 16 23.867   +55 49 57.11  .03221 1.0112 135.9 21.3  34d 139
2019 02 16 10  09 15 41.336   +55 54 03.49  .03224 1.0112 135.8 21.3  34d 139
2019 02 16 11  09 14 58.740   +55 58 08.36  .03227 1.0112 135.7 21.3  34d 139
2019 02 16 12  09 14 16.080   +56 02 11.71  .03230 1.0112 135.6 21.3  34d 139
2019 02 16 13  09 13 33.356   +56 06 13.54  .03233 1.0112 135.5 21.3  34d 139
2019 02 16 14  09 12 50.569   +56 10 13.86  .03236 1.0112 135.4 21.3  34d 139
2019 02 16 15  09 12 07.721   +56 14 12.66  .03239 1.0111 135.2 21.3  34d 139
2019 02 16 16  09 11 24.811   +56 18 09.94  .03242 1.0111 135.1 21.4  34d 139
2019 02 16 17  09 10 41.842   +56 22 05.71  .03245 1.0111 135.0 21.4  34d 139
2019 02 16 18  09 09 58.813   +56 25 59.95  .03248 1.0111 134.9 21.4  34d 139
2019 02 16 19  09 09 15.726   +56 29 52.68  .03251 1.0111 134.8 21.4  34d 138
2019 02 16 20  09 08 32.581   +56 33 43.90  .03255 1.0111 134.7 21.4  34d 138
2019 02 16 21  09 07 49.379   +56 37 33.59  .03258 1.0111 134.6 21.4  34d 138
2019 02 16 22  09 07 06.122   +56 41 21.77  .03261 1.0111 134.5 21.4  34d 138
2019 02 16 23  09 06 22.810   +56 45 08.42  .03264 1.0110 134.3 21.4  34d 138
2019 02 17 00  09 05 39.444   +56 48 53.57  .03267 1.0110 134.2 21.4  34d 138
2019 02 17 01  09 04 56.025   +56 52 37.19  .03270 1.0110 134.1 21.4  34d 138
2019 02 17 02  09 04 12.554   +56 56 19.30  .03274 1.0110 134.0 21.4  34d 138
2019 02 17 03  09 03 29.032   +56 59 59.89  .03277 1.0110 133.9 21.4  34d 138
2019 02 17 04  09 02 45.459   +57 03 38.97  .03280 1.0110 133.8 21.4  34d 138
2019 02 17 05  09 02 01.838   +57 07 16.53  .03283 1.0110 133.7 21.4  34d 138
2019 02 17 06  09 01 18.168   +57 10 52.58  .03286 1.0109 133.6 21.4  34d 138
2019 02 17 07  09 00 34.450   +57 14 27.12  .03290 1.0109 133.4 21.4  34d 138
2019 02 17 08  08 59 50.686   +57 18 00.14  .03293 1.0109 133.3 21.4  34d 137
2019 02 17 09  08 59 06.877   +57 21 31.66  .03296 1.0109 133.2 21.4  34d 137
2019 02 17 10  08 58 23.023   +57 25 01.66  .03300 1.0109 133.1 21.4  34d 137
2019 02 17 11  08 57 39.126   +57 28 30.15  .03303 1.0109 133.0 21.4  34d 137
2019 02 17 12  08 56 55.186   +57 31 57.14  .03306 1.0109 132.9 21.5  34d 137
2019 02 17 13  08 56 11.205   +57 35 22.62  .03310 1.0108 132.8 21.5  34d 137
2019 02 17 14  08 55 27.183   +57 38 46.59  .03313 1.0108 132.7 21.5  34d 137
2019 02 17 15  08 54 43.122   +57 42 09.06  .03316 1.0108 132.6 21.5  34d 137
2019 02 17 16  08 53 59.022   +57 45 30.03  .03320 1.0108 132.4 21.5  34d 137
2019 02 17 17  08 53 14.884   +57 48 49.49  .03323 1.0108 132.3 21.5  34d 137
2019 02 17 18  08 52 30.710   +57 52 07.46  .03326 1.0108 132.2 21.5  34d 137
2019 02 17 19  08 51 46.500   +57 55 23.93  .03330 1.0108 132.1 21.5  34d 137
2019 02 17 20  08 51 02.256   +57 58 38.90  .03333 1.0107 132.0 21.5  34d 137
2019 02 17 21  08 50 17.978   +58 01 52.38  .03337 1.0107 131.9 21.5  34d 136